Zurück zum Katalog

CZ-4 DEB

AktivSSO
NORAD 28075·DEBRIS·🇨🇳 China

Gestartet Oct 14, 1999 von Taiyuan Satellite Launch Center

Loading…

Nächste Überflüge (nächste 24 Stunden)

TLE

AlterndSource: Space-Track

Epoche: Sep 9, 2026, 23:24 UTC

1 28075U 99057NF  26252.97546751  .00000441  00000-0  13754-3 0  9995
2 28075  98.6134 318.4258 0094390 293.9213  65.2112 14.43518638746423

Verfolge CZ-4 DEB in Echtzeit mit AllMySat

Download on the App Store